Date String (YYYY-MM-DD hh:mm:ss) UTC,Instrument flags,Ambient pressure (hPa),Sample flow (lpm),Bypass flow (lpm),Sample temperature (°C),Ambient temperature (°C),ASC tube jacket temperature (°C),LED temperature (°C),Box temperature (°C),Sample RH (%),Span deviation,Mass concentration (μg/m³),Mass concentration (μg/m³),Mass concentration (μg/m³)
DateTimeUTC,F1_M11,P_M11,Q1_M11,Q2_M11,T1_M11,T2_M11,T3_M11,T4_M11,T5_M11,U1_M11,ZSPAN_M11,X0_M11,X2_M11,X1_M11
2023-03-02 21:00:00,,0814.4,5.00,0.00,22.0,20.3,00.0,30.9,23.7,14.3,0000.0,0011.67,0006.58,0006.14
2023-03-02 21:01:00,,0814.3,5.01,0.00,22.0,20.3,00.0,30.9,23.7,14.4,0000.0,0011.10,0006.58,0006.16
2023-03-02 21:02:00,,0814.3,5.00,0.00,22.0,20.3,00.0,30.9,23.7,14.6,0000.0,0011.09,0006.62,0006.19
2023-03-02 21:03:00,,0814.3,5.00,0.00,22.0,20.3,00.0,30.9,23.8,14.6,0000.0,0011.13,0006.65,0006.23
2023-03-02 21:04:00,,0814.4,5.00,0.00,22.0,20.3,00.0,30.8,23.7,14.5,0000.0,0011.14,0006.67,0006.26
2023-03-02 21:05:00,,0814.4,5.01,0.00,22.0,20.2,00.0,30.8,23.7,14.4,0000.0,0011.20,0006.71,0006.29
2023-03-02 21:06:00,,0814.3,5.00,0.00,22.0,20.2,00.0,30.8,23.7,14.6,0000.0,0011.09,0006.79,0006.33
2023-03-02 21:07:00,,0814.4,5.00,0.00,22.0,20.2,00.0,30.8,23.7,14.1,0000.0,0011.26,0006.84,0006.36
2023-03-02 21:08:00,,0814.4,5.00,0.00,22.0,20.2,00.0,30.8,23.7,13.8,0000.0,0011.24,0006.80,0006.33
2023-03-02 21:09:00,,0814.2,5.00,0.00,22.0,20.2,00.0,30.8,23.7,13.7,0000.0,0010.54,0006.77,0006.30
2023-03-02 21:10:00,,0814.2,5.00,0.00,22.0,20.3,00.0,30.8,23.7,14.0,0000.0,0010.43,0006.75,0006.28
2023-03-02 21:11:00,,0814.4,5.00,0.00,22.0,20.3,00.0,30.8,23.7,14.0,0000.0,0010.61,0006.79,0006.27
2023-03-02 21:12:00,,0814.5,5.00,0.00,22.0,20.2,00.0,30.8,23.7,13.8,0000.0,0010.75,0006.84,0006.29
2023-03-02 21:13:00,,0814.2,5.00,0.00,21.9,20.1,00.0,30.8,23.7,13.9,0000.0,0010.86,0006.86,0006.29
2023-03-02 21:14:00,,0814.3,5.00,0.00,21.9,20.1,00.0,30.8,23.6,14.1,0000.0,0010.99,0006.87,0006.31
2023-03-02 21:15:00,,0814.1,5.00,0.00,21.9,20.1,00.0,30.8,23.6,14.2,0000.0,0011.67,0006.89,0006.30
2023-03-02 21:16:00,,0814.1,5.00,0.00,21.9,20.2,00.0,30.7,23.6,14.2,0000.0,0011.54,0006.89,0006.30
2023-03-02 21:17:00,,0814.4,5.00,0.00,21.9,20.2,00.0,30.7,23.6,14.3,0000.0,0012.50,0006.86,0006.31
2023-03-02 21:18:00,,0814.0,5.00,0.00,21.9,20.2,00.0,30.7,23.7,14.3,0000.0,0012.73,0006.88,0006.34
2023-03-02 21:19:00,,0814.1,5.00,0.00,21.9,20.2,00.0,30.7,23.7,14.2,0000.0,0012.86,0006.94,0006.41
2023-03-02 21:20:00,,0814.1,4.99,0.00,21.9,20.2,00.0,30.7,23.7,14.2,0000.0,0013.30,0007.01,0006.48
2023-03-02 21:21:00,,0814.1,5.00,0.00,21.9,20.2,00.0,30.7,23.7,14.2,0000.0,0013.31,0007.08,0006.53
2023-03-02 21:22:00,,0814.4,4.97,0.00,21.9,20.2,00.0,30.7,23.7,14.3,0000.0,0013.18,0007.08,0006.55
2023-03-02 21:23:00,,0814.4,4.97,0.00,21.9,20.2,00.0,30.7,23.7,14.1,0000.0,0013.08,0007.07,0006.56
2023-03-02 21:24:00,,0814.5,5.00,0.00,21.9,20.2,00.0,30.7,23.7,14.0,0000.0,0013.09,0007.08,0006.58
2023-03-02 21:25:00,,0814.1,5.00,0.00,21.9,20.3,00.0,30.7,23.7,13.8,0000.0,0012.91,0007.09,0006.59
2023-03-02 21:26:00,,0814.0,4.99,0.00,21.9,20.3,00.0,30.7,23.7,13.9,0000.0,0012.24,0007.08,0006.59
2023-03-02 21:27:00,,0814.1,5.00,0.00,21.9,20.3,00.0,30.7,23.7,13.9,0000.0,0012.15,0007.08,0006.60
2023-03-02 21:28:00,,0814.1,5.00,0.00,21.9,20.3,00.0,30.7,23.7,14.2,0000.0,0010.96,0007.09,0006.59
2023-03-02 21:29:00,,0814.1,5.00,0.00,21.9,20.3,00.0,30.7,23.7,13.9,0000.0,0010.83,0007.11,0006.59
2023-03-02 21:30:00,,0814.0,4.99,0.00,21.9,20.3,00.0,30.7,23.7,13.9,0000.0,0010.88,0007.10,0006.60
2023-03-02 21:31:00,,0814.1,5.01,0.00,21.9,20.3,00.0,30.7,23.6,13.7,0000.0,0010.69,0007.12,0006.62
2023-03-02 21:32:00,,0814.1,5.01,0.00,21.9,20.3,00.0,30.7,23.7,13.9,0000.0,0010.91,0007.14,0006.64
2023-03-02 21:33:00,,0814.1,4.99,0.00,21.9,20.3,00.0,30.7,23.7,13.8,0000.0,0011.45,0007.19,0006.68
2023-03-02 21:34:00,,0814.1,5.00,0.00,21.9,20.3,00.0,30.7,23.7,13.7,0000.0,0012.39,0007.21,0006.71
2023-03-02 21:35:00,,0814.0,5.00,0.00,21.9,20.3,00.0,30.7,23.7,13.7,0000.0,0013.61,0007.24,0006.73
2023-03-02 21:36:00,,0814.0,4.99,0.00,21.9,20.3,00.0,30.7,23.7,13.7,0000.0,0013.75,0007.27,0006.75
2023-03-02 21:37:00,,0814.0,5.01,0.00,21.9,20.4,00.0,30.7,23.7,14.0,0000.0,0013.82,0007.30,0006.78
2023-03-02 21:38:00,,0814.0,4.98,0.00,21.9,20.4,00.0,30.7,23.7,13.9,0000.0,0014.22,0007.34,0006.81
2023-03-02 21:39:00,,0814.1,5.00,0.00,21.9,20.4,00.0,30.7,23.7,13.8,0000.0,0014.43,0007.40,0006.85
2023-03-02 21:40:00,,0813.9,5.00,0.00,21.9,20.3,00.0,30.7,23.7,13.9,0000.0,0014.32,0007.39,0006.85
2023-03-02 21:41:00,,0814.1,5.00,0.00,21.9,20.3,00.0,30.7,23.7,13.7,0000.0,0014.15,0007.39,0006.85
2023-03-02 21:42:00,,0814.0,5.04,0.00,21.9,20.3,00.0,30.7,23.7,13.7,0000.0,0014.22,0007.38,0006.84
2023-03-02 21:43:00,,0814.1,5.04,0.00,21.9,20.3,00.0,30.7,23.7,13.6,0000.0,0014.00,0007.36,0006.84
2023-03-02 21:44:00,,0814.0,5.03,0.00,21.9,20.3,00.0,30.7,23.7,13.6,0000.0,0013.64,0007.35,0006.82
2023-03-02 21:45:00,,0814.0,5.00,0.00,21.9,20.2,00.0,30.7,23.7,13.4,0000.0,0012.86,0007.35,0006.82
2023-03-02 21:46:00,,0814.2,5.01,0.00,21.9,20.2,00.0,30.7,23.7,13.5,0000.0,0011.54,0007.35,0006.83
2023-03-02 21:47:00,,0814.4,4.98,0.00,21.9,20.3,00.0,30.7,23.7,13.5,0000.0,0011.66,0007.37,0006.84
2023-03-02 21:48:00,,0814.2,4.99,0.00,21.9,20.3,00.0,30.7,23.7,14.0,0000.0,0012.19,0007.36,0006.83
2023-03-02 21:49:00,,0814.2,4.99,0.00,21.9,20.4,00.0,30.7,23.7,13.9,0000.0,0011.94,0007.36,0006.84
2023-03-02 21:50:00,,0813.9,4.98,0.00,21.9,20.4,00.0,30.7,23.7,13.7,0000.0,0012.34,0007.37,0006.86
2023-03-02 21:51:00,,0814.2,4.97,0.00,21.9,20.4,00.0,30.7,23.7,13.7,0000.0,0012.45,0007.41,0006.88
2023-03-02 21:52:00,,0814.2,5.01,0.00,21.9,20.4,00.0,30.7,23.7,13.7,0000.0,0012.43,0007.42,0006.90
2023-03-02 21:53:00,,0814.1,4.99,0.00,21.9,20.3,00.0,30.7,23.6,13.6,0000.9,0012.31,0007.44,0006.91
2023-03-02 21:54:00,,0814.1,5.01,0.00,21.9,20.3,00.0,30.7,23.7,13.9,0000.0,0012.50,0007.48,0006.92
2023-03-02 21:55:00,,0814.3,5.02,0.00,21.9,20.3,00.0,30.7,23.6,14.1,0000.0,0012.96,0007.49,0006.93
2023-03-02 21:56:00,,0813.9,5.00,0.00,21.9,20.3,00.0,30.7,23.7,13.9,0000.0,0013.47,0007.50,0006.91
2023-03-02 21:57:00,,0814.1,4.99,0.00,21.9,20.3,00.0,30.7,23.7,13.8,-000.0,0013.49,0007.47,0006.87
2023-03-02 21:58:00,,0814.1,5.00,0.00,21.9,20.3,00.0,30.7,23.7,13.9,0000.0,0013.85,0007.42,0006.82
2023-03-02 21:59:00,,0814.0,5.00,0.00,21.9,20.2,00.0,30.7,23.7,13.7,0000.3,0012.99,0007.35,0006.78
